Regional Weather Roundup
Issued by NWS

Home | Current Version | Previous Version | Text Only | Print | Product List | Glossary Off
Versions: 1 2 3 4 5 6 7 8 9 10 11 12 13 14 15 16 17 18 19 20 21 22 23 24 25 26 27 28 29 30 31 32 33 34 35 36 37 38 39 40 41 42 43 44 45 46 47 48 49 50

129
ASUS45 KTFX 251810
RWRMT
MONTANA REGIONAL WEATHER ROUNDUP
NATIONAL WEATHER SERVICE GREAT FALLS MT
1200 PM MDT TUE APR 25 2017

NOTE: "FAIR" INDICATES FEW OR NO CLOUDS BELOW 12000 FEET WITH NO
SIGNIFICANT WEATHER AND/OR OBSTRUCTIONS TO VISIBILITY.

MTZ001>007-043-251900-
WEST OF THE DIVIDE

CITY           SKY/WX    TMP DP  RH WIND       PRES   REMARKS
KALISPELL      PTSUNNY   42  38  85 CALM      29.81S
MISSOULA       CLOUDY    49  38  65 W3        29.85F
BUTTE          CLOUDY    45  29  53 N9        29.82S
MULLAN PASS    SNOW      32  32 100 VRB3      29.83S VSB 1/4
ANACONDA         N/A     45  30  57 NW3       29.83R
DEER LODGE       N/A     48  30  49 S5        29.84F
EUREKA           N/A     52  32  46 CALM      29.78F
HAMILTON         N/A     50  32  50 S3        29.84F
PLAINS           N/A     48  41  77 N2        29.86
$$

MTZ008-052>055-251900-
SOUTHWEST MONTANA

CITY           SKY/WX    TMP DP  RH WIND       PRES   REMARKS
BOZEMAN        LGT RAIN  44  38  79 SW7       29.80F
DILLON         CLOUDY    46  33  60 VRB5      29.80S
W YELLOWSTONE  CLOUDY    39  27  60 NE9       29.77R
ENNIS          PTSUNNY   43  37  81 MISG      29.84
$$

MTZ009-010-012-014-046-048-049-054-251900-
EAST SLOPES AND CENTRAL MONTANA

CITY           SKY/WX    TMP DP  RH WIND       PRES   REMARKS
CUT BANK       CLOUDY    37  36  96 SE6       29.80S
GREAT FALLS    CLOUDY    46  38  73 CALM      29.80F
MALMSTROM AFB  CLOUDY    44  39  81 CALM      29.81S
HELENA         CLOUDY    50  40  68 N10       29.80R
AUGUSTA        PTSUNNY   45  37  73 S3        29.77F
BOWMANS CRNR     N/A     45  34  65 E5        29.76F
CHOTEAU          N/A     45  41  87 NE9       29.81S
FAIRFIELD      PTSUNNY   44  37  78 E6        29.78F
POWER          SHOWER    41  38  87 NW8       29.80S
RAYNESFORD     PTSUNNY   44  37  78 SE6       29.80F
ULM            PTSUNNY   47  38  72 CALM      29.79F
$$

MTZ011-013-016-021-045-047-050-051-251900-
NORTH CENTRAL MONTANA

CITY           SKY/WX    TMP DP  RH WIND       PRES   REMARKS
HAVRE          CLOUDY    42  31  64 E18       29.86S
LEWISTOWN      CLOUDY    41  33  73 E10       29.82F
CHINOOK          N/A     36  27  69 E17G23    29.91R WCI  25
DENTON         CLOUDY    38  37  94 NE15G22   29.81R WCI  29
FORT BENTON      N/A     45  36  70 MISG      29.84S
GEYSER         PTSUNNY   42  39  91 E12       29.80F
GRASS RANGE    CLOUDY    32  32 100 E12       29.84R WCI  23
JUDITH GAP     CLOUDY    33  34 100 S15G23    29.83R WCI  23
STANFORD       PTSUNNY   41  38  89 SE3       29.81S
WINIFRED       PTSUNNY   36  34  91 E17       29.83F WCI  26
$$

MTZ017>020-022>027-061-062-251900-
NORTHEAST MONTANA

CITY           SKY/WX    TMP DP  RH WIND       PRES   REMARKS
GLASGOW        CLOUDY    34  24  67 SE12      29.97R WCI  25
JORDAN           N/A     33  26  75 E9        29.93R WCI  25
SIDNEY         CLOUDY    35  24  64 NE10      29.96S WCI  27
WOLF POINT     CLOUDY    37  25  61 E13       29.98S WCI  29
PLENTYWOOD       N/A     34  21  60 NE13      29.98S WCI  25
POPLAR           N/A     36  23  60 NE10      29.97F WCI  28
SCOBEY           N/A     34  19  54 NE8       29.96  WCI  27
$$

MTZ028>42-056>058-251900-
SOUTHCENTRAL AND SOUTHEAST MONTANA

CITY           SKY/WX    TMP DP  RH WIND       PRES   REMARKS
BAKER          CLOUDY    27  24  89 NE10      29.88S WCI  17
BILLINGS       CLOUDY    32  30  92 NE12      29.88R WCI  23
LIVINGSTON     CLOUDY    42  37  82 E8        29.81R
MILES CITY     CLOUDY    32  25  75 NE15      29.91R WCI  22
BIG TIMBER     CLOUDY    39  36  87 E10       29.86R
EKALAKA          N/A     26  23  88 N10       29.83  WCI  16
LAUREL           N/A     34  24  67 N6        29.87F WCI  29
ROUNDUP          N/A     31  26  81 NE8       29.82R WCI  24
$$

REGIONAL REPORTS...DAKOTAS

CITY           SKY/WX    TMP DP  RH WIND       PRES   REMARKS
WILLISTON      CLOUDY    37  23  56 E15       29.97S WCI  28
MINOT          CLOUDY    36  25  64 N20       29.92F WCI  25
DICKINSON      CLOUDY    27  23  85 N16       29.86R WCI  15
BEACH          CLOUDY    28  27  93 NE14      29.94R WCI  17
TIOGA          CLOUDY    30  27  86 NE15      29.95F WCI  19
WATFORD CITY   CLOUDY    34  25  69 NE12G18   29.94R WCI  25
BISMARCK       CLOUDY    32  26  78 N14G23    29.88R WCI  22
GRAND FORKS    CLOUDY    35  28  75 N24       29.84R WCI  23
FARGO          CLOUDY    37  31  78 N21G31    29.75S WCI  26
BUFFALO SD       N/A     28  26  92 NE21      29.75S WCI  15
RAPID CITY     LGT SNOW  30  28  92 N17       29.75S VSB 3/4 WCI  18
$$

REGIONAL REPORTS...WYOMING/IDAHO/WASHINGTON

CITY           SKY/WX    TMP DP  RH WIND       PRES   REMARKS
GILLETTE       LGT SNOW  29  50 100 N18       29.76R WCI  16
SHERIDAN       LGT SNOW  32  29  88 N9        29.84R VSB 1   WCI  24
CODY           MIX PCPN  35  31  85 N13       29.82R WCI  26
YELLOWSTONE LA   N/A     36  27  69 VRB7      29.78R WCI  30
IDAHO FALLS    LGT RAIN  45  37  73 NW14      29.80R
SALMON         CLOUDY    48  28  46 SW3       29.85R
BOISE          MOSUNNY   50  36  58 NW10G18   29.94S
SPOKANE        CLOUDY    44  39  82 SW15      29.89S
$$

REGIONAL REPORTS...ALBERTA

CITY           SKY/WX    TMP DP  RH WIND       PRES   REMARKS
EDMONTON       CLOUDY    36  27  69 E2        29.93S
CALGARY        CLOUDY    32  27  80 N12       29.87R WCI  23
LETHBRIDGE     LGT RAIN  36  36 100 NW13G18   29.82R FOG     WCI  27
MEDICINE HAT   SNOWSHWR  34  32  93 SW6       29.87R VSB 3/4 WCI  29
CARDSTON         N/A     34  32  93 N15         N/A  WCI  24
MILK RIVER       N/A     39  37  93 S16         N/A  WCI  30
ONEFOUR          N/A     30  30 100 E13         N/A  WCI  20
$$

REGIONAL REPORTS...SASKATCHEWAN

CITY           SKY/WX    TMP DP  RH WIND       PRES   REMARKS
SWIFT CURRENT  CLOUDY    30  25  80 SE13G18   29.95R WCI  20
REGINA         PTSUNNY   32  18  55 NE12      30.03S WCI  23
SASKATOON      PTSUNNY   34  21  60 E10G17    30.09S WCI  26
VAL MARIE        N/A     32  25  74 SE12        N/A  WCI  23
ROCKGLEN         N/A     32  25  74 E3          N/A
$$




USA.gov is the U.S. government's official web portal to all federal, state and local government web resources and services.